QPF
0.00 0.00 0.00 0.00 0.00 0.00 0.00 0.00 0.00 0.00 0.00 0.00 0.00 0.00 0.00 0.00 0.00 0.00 0.00 0.00 0.00 0.00 0.00 0.00 0.00 0.00 0.00 0.00 0.00 0.00 0.00 0.00 0.00 0.00 0.00 0.00 0.00 0.00 0.00 0.00 0.00 0.00 0.00 0.00 0.00
0.00 0.00 0.00 0.00 0.00 0.00 0.00 0.00 0.00 0.00 0.00 0.00 0.00 0.00 0.00 0.00 0.00 0.00 0.00 0.00 0.00 0.00 0.00 0.00 0.00 0.00 0.00 0.00 0.00 0.00 0.00 0.00 0.00 0.00 0.00 0.00 0.00 0.00 0.00 0.00 0.00 0.00 0.00 0.00 0.00
0.00 0.00 0.00 0.00 0.00 0.00 0.00 0.00 0.00 0.00 0.00 0.00 0.00 0.00 0.00 0.00 0.00 0.00 0.00 0.00 0.00 0.00 0.00 0.00 0.00 0.00 0.00 0.00 0.00 0.00 0.00 0.00 0.00 0.00 0.00 0.00 0.00 0.00 0.00 0.00 0.00 0.00 0.00 0.00 0.00
0.00 0.00 0.00 0.00 0.00 0.00 0.00 0.00 0.00 0.00 0.00 0.00 0.00 0.00 0.00 0.00 0.00 0.00 0.00 0.00 0.00 0.00 0.00 0.00 0.00 0.00 0.00 0.00 0.00 0.00 0.00 0.00 0.00 0.00 0.00 0.00 0.00 0.00 0.00 0.00 0.00 0.00 0.00 0.00 0.00
0.00 0.00 0.00 0.00 0.00 0.00 0.00 0.00 0.00 0.00 0.00 0.00 0.00 0.00 0.00 0.00 0.00 0.00 0.00 0.00 0.00 0.00 0.00 0.00 0.00 0.00 0.00 0.00 0.00 0.00 0.00 0.00 0.00 0.00 0.00 0.00 0.00 0.00 0.00 0.00 0.00 0.00 0.00 0.00 0.00
0.00 0.00 0.00 0.00 0.00 0.00 0.00 0.00 0.00 0.00 0.00 0.00 0.00 0.00 0.00 0.00 0.00 0.00 0.00 0.00 0.00 0.00 0.00 0.00 0.00 0.00 0.00 0.00 0.00 0.00 0.00 0.00 0.00 0.00 0.00 0.00 0.00 0.00 0.00 0.00 0.00 0.00 0.00 0.00 0.00
0.00 0.00 0.00 0.00 0.00 0.00 0.00 0.00 0.00 0.00 0.00 0.00 0.00 0.00 0.00 0.00 0.00 0.00 0.00 0.00 0.00 0.00 0.00 0.00 0.00 0.00 0.00 0.00 0.00 0.00 0.00 0.00 0.00 0.00 0.00 0.00 0.00 0.00 0.00 0.00 0.00 0.00 0.00 0.00 0.00
0.00 0.00 0.00 0.00 0.00 0.00 0.00 0.00 0.00 0.00 0.00 0.00 0.01 0.00 0.00 0.00 0.00 0.00 0.00 0.00 0.00 0.00 0.00 0.00 0.00 0.00 0.00 0.00 0.00 0.00 0.00 0.00 0.00 0.00 0.00 0.00 0.00 0.00 0.00 0.00 0.00 0.00 0.00 0.00 0.00
0.00 0.00 0.00 0.00 0.00 0.00 0.00 0.00 0.00 0.00 0.00 0.00 0.00 0.00 0.00 0.00 0.00 0.00 0.00 0.00 0.00 0.00 0.00 0.00 0.00 0.00 0.00 0.00 0.00 0.00 0.00 0.00 0.00 0.00 0.00 0.00 0.00 0.00 0.00 0.00 0.00 0.00 0.00 0.00 0.00
0.00 0.00 0.00 0.00 0.00 0.00 0.00 0.00 0.00 0.00 0.00 0.01 0.01 0.00 0.00 0.00 0.00 0.00 0.00 0.00 0.00 0.00 0.00 0.00 0.00 0.00 0.00 0.00 0.00 0.00 0.00 0.00 0.00 0.00 0.00 0.00 0.00 0.00 0.00 0.00 0.00 0.00 0.00 0.00 0.00
0.00 0.00 0.00 0.00 0.00 0.00 0.00 0.00 0.00 0.00 0.00 0.00 0.00 0.00 0.00 0.00 0.00 0.00 0.00 0.00 0.00 0.00 0.00 0.00 0.00 0.00 0.00 0.00 0.00 0.00 0.00 0.00 0.00 0.00 0.00 0.00 0.00 0.00 0.00 0.00 0.00 0.00 0.00 0.00 0.00
0.00 0.00 0.00 0.00 0.00 0.00 0.00 0.00 0.01 0.02 0.02 0.00 0.00 0.00 0.00 0.00 0.00 0.00 0.00 0.00 0.00 0.00 0.00 0.00 0.00 0.00 0.00 0.00 0.00 0.00 0.00 0.00 0.00 0.00 0.00 0.00 0.00 0.00 0.00 0.00 0.00 0.00 0.00 0.00 0.00
0.00 0.00 0.00 0.00 0.00 0.00 0.00 0.00 0.00 0.02 0.02 0.00 0.00 0.00 0.00 0.00 0.00 0.00 0.00 0.00 0.00 0.00 0.00 0.00 0.00 0.00 0.00 0.00 0.00 0.00 0.00 0.00 0.00 0.00 0.00 0.00 0.00 0.00 0.00 0.00 0.00 0.00 0.00 0.00 0.00
0.00 0.00 0.00 0.00 0.00 0.00 0.00 0.02 0.02 0.05 0.02 0.00 0.00 0.00 0.00 0.00 0.00 0.00 0.00 0.00 0.00 0.00 0.00 0.00 0.00 0.00 0.00 0.00 0.00 0.00 0.00 0.00 0.00 0.00 0.00 0.00 0.00 0.00 0.00 0.00 0.00 0.00 0.00 0.00 0.00
0.00 0.00 0.00 0.01 0.00 0.00 0.00 0.01 0.02 0.05 0.01 0.00 0.00 0.00 0.00 0.00 0.00 0.00 0.00 0.00 0.00 0.00 0.00 0.00 0.00 0.00 0.00 0.00 0.00 0.00 0.00 0.00 0.00 0.00 0.00 0.00 0.00 0.00 0.00 0.00 0.00 0.00 0.00 0.00 0.00
0.00 0.00 0.00 0.00 0.00 0.00 0.00 0.01 0.02 0.02 0.00 0.00 0.00 0.00 0.00 0.00 0.00 0.00 0.00 0.00 0.00 0.00 0.00 0.00 0.00 0.00 0.00 0.00 0.00 0.00 0.00 0.00 0.00 0.00 0.00 0.00 0.00 0.00 0.00 0.00 0.00 0.00 0.00 0.00 0.00
0.00 0.00 0.00 0.00 0.00 0.00 0.00 0.00 0.01 0.02 0.00 0.00 0.00 0.01 0.00 0.00 0.00 0.00 0.00 0.00 0.00 0.01 0.01 0.00 0.00 0.00 0.00 0.00 0.00 0.00 0.00 0.00 0.00 0.00 0.00 0.00 0.00 0.00 0.00 0.00 0.00 0.00 0.00 0.00 0.00
0.00 0.00 0.00 0.00 0.00 0.00 0.00 0.01 0.00 0.00 0.00 0.00 0.00 0.01 0.01 0.00 0.00 0.00 0.00 0.00 0.00 0.01 0.01 0.00 0.00 0.00 0.00 0.00 0.00 0.00 0.00 0.00 0.00 0.00 0.00 0.00 0.00 0.00 0.00 0.00 0.00 0.00 0.00 0.00 0.00
0.00 0.00 0.00 0.00 0.00 0.01 0.01 0.00 0.00 0.00 0.03 0.02 0.00 0.00 0.00 0.01 0.01 0.00 0.00 0.00 0.00 0.00 0.01 0.00 0.00 0.00 0.00 0.00 0.00 0.00 0.00 0.00 0.00 0.00 0.00 0.00 0.00 0.00 0.00 0.00 0.00 0.00 0.00 0.00 0.00
0.00 0.00 0.00 0.00 0.00 0.01 0.01 0.00 0.00 0.00 0.02 0.04 0.01 0.00 0.00 0.01 0.03 0.05 0.03 0.01 0.00 0.00 0.02 0.01 0.02 0.00 0.00 0.00 0.00 0.00 0.00 0.00 0.00 0.00 0.00 0.00 0.00 0.00 0.00 0.00 0.00 0.00 0.00 0.00 0.00
0.00 0.00 0.00 0.00 0.01 0.01 0.00 0.00 0.00 0.00 0.00 0.01 0.02 0.02 0.01 0.00 0.00 0.02 0.02 0.02 0.00 0.00 0.01 0.02 0.06 0.01 0.02 0.00 0.00 0.00 0.00 0.00 0.00 0.00 0.00 0.00 0.00 0.00 0.00 0.00 0.00 0.00 0.00 0.00 0.00
0.00 0.00 0.00 0.00 0.01 0.00 0.00 0.00 0.00 0.00 0.00 0.00 0.00 0.00 0.00 0.00 0.00 0.00 0.00 0.00 0.00 0.00 0.01 0.01 0.02 0.02 0.02 0.01 0.01 0.00 0.00 0.00 0.00 0.00 0.00 0.00 0.00 0.00 0.00 0.00 0.00 0.00 0.00 0.00 0.00
0.00 0.00 0.00 0.00 0.00 0.00 0.00 0.00 0.00 0.00 0.00 0.00 0.01 0.01 0.02 0.01 0.02 0.00 0.00 0.00 0.01 0.01 0.00 0.05 0.06 0.01 0.00 0.02 0.01 0.01 0.00 0.00 0.00 0.00 0.00 0.00 0.00 0.00 0.00 0.00 0.00 0.00 0.00 0.00 0.00
0.00 0.00 0.00 0.00 0.00 0.00 0.00 0.00 0.00 0.00 0.00 0.00 0.00 0.00 0.01 0.00 0.00 0.00 0.00 0.00 0.02 0.02 0.04 0.02 0.00 0.00 0.00 0.00 0.01 0.01 0.00 0.00 0.00 0.00 0.00 0.00 0.00 0.00 0.00 0.00 0.00 0.00 0.00 0.00 0.00
0.00 0.00 0.00 0.00 0.00 0.00 0.00 0.00 0.00 0.00 0.00 0.00 0.00 0.00 0.00 0.00 0.00 0.00 0.00 0.00 0.00 0.00 0.03 0.05 0.01 0.00 0.00 0.00 0.01 0.01 0.00 0.00 0.00 0.00 0.00 0.00 0.00 0.00 0.00 0.00 0.00 0.00 0.00 0.00 0.00
0.00 0.00 0.00 0.00 0.00 0.00 0.00 0.00 0.00 0.00 0.00 0.00 0.01 0.00 0.01 0.00 0.00 0.00 0.00 0.00 0.00 0.01 0.03 0.08 0.02 0.01 0.00 0.00 0.00 0.00 0.00 0.00 0.00 0.00 0.00 0.00 0.00 0.00 0.00 0.00 0.00 0.00 0.00 0.00 0.00
0.00 0.00 0.01 0.00 0.00 0.00 0.00 0.00 0.00 0.00 0.00 0.00 0.00 0.00 0.00 0.00 0.01 0.01 0.00 0.00 0.00 0.01 0.01 0.01 0.01 0.01 0.00 0.01 0.02 0.01 0.00 0.00 0.00 0.00 0.00 0.00 0.00 0.00 0.00 0.00 0.00 0.00 0.00 0.00 0.00
MSLP
1021.87 1021.58 1021.22 1020.90 1020.63 1020.29 1020.13 1020.01 1019.67 1019.14 1018.73 1018.47 1018.24 1017.86 1017.10 1016.30 1015.23 1014.25 1013.86 1012.21 1011.79 1011.51 1011.45 1011.21 1010.87 1010.75 1010.40 1010.73 1010.88 1011.48 1012.65 1012.81 1011.30 1010.26 1008.94 1008.19 1007.82 1006.53 1005.90 1006.09 1006.36 1007.04 1007.67 1008.11 1009.38
1021.98 1021.76 1021.55 1021.20 1020.81 1020.56 1020.23 1019.93 1019.62 1019.34 1018.98 1018.46 1018.09 1017.53 1017.02 1016.13 1015.27 1014.01 1013.03 1012.13 1011.55 1011.24 1011.68 1011.62 1011.21 1011.11 1010.99 1010.98 1011.15 1011.56 1012.57 1011.96 1010.48 1009.53 1009.14 1008.53 1008.05 1007.22 1006.60 1006.43 1006.79 1007.43 1008.31 1008.82 1009.55
1022.15 1021.91 1021.57 1021.28 1020.99 1020.71 1020.42 1020.07 1019.64 1019.17 1018.85 1018.47 1017.98 1017.51 1016.75 1016.20 1015.41 1012.79 1012.64 1011.92 1011.15 1011.01 1011.13 1011.38 1011.17 1011.28 1011.34 1011.04 1011.04 1011.40 1011.42 1010.92 1009.96 1009.42 1009.05 1008.72 1008.03 1007.44 1007.09 1006.99 1006.57 1007.04 1008.48 1009.18 1009.69
1022.21 1021.94 1021.61 1021.29 1020.95 1020.75 1020.53 1020.12 1019.65 1019.18 1018.89 1018.50 1018.10 1017.59 1016.95 1016.51 1014.93 1012.39 1012.36 1011.78 1011.33 1011.24 1011.18 1011.38 1011.16 1011.43 1011.46 1011.26 1010.77 1011.00 1010.47 1010.17 1009.67 1009.31 1009.22 1009.10 1008.58 1007.76 1007.16 1006.54 1006.34 1006.77 1007.75 1008.69 1009.43
1022.21 1021.92 1021.60 1021.29 1021.01 1020.72 1020.39 1020.12 1019.79 1019.35 1018.86 1018.43 1018.23 1017.97 1017.53 1016.55 1013.72 1011.68 1011.88 1011.96 1011.81 1011.51 1011.67 1011.77 1011.30 1011.21 1011.47 1011.25 1010.84 1010.76 1010.28 1009.84 1009.41 1009.29 1009.16 1008.80 1008.51 1008.24 1007.23 1006.68 1006.59 1007.02 1008.00 1008.63 1008.87
1022.19 1022.00 1021.72 1021.38 1021.07 1020.71 1020.38 1020.04 1019.75 1019.46 1019.01 1018.51 1018.15 1017.94 1017.87 1016.12 1012.93 1012.25 1012.57 1012.56 1012.49 1012.30 1012.08 1012.00 1011.85 1011.23 1011.39 1011.28 1010.97 1010.33 1010.23 1009.71 1009.32 1008.96 1008.63 1008.66 1008.14 1008.01 1007.11 1006.60 1007.16 1007.34 1007.93 1008.56 1008.72
1022.18 1021.95 1021.72 1021.44 1021.05 1020.68 1020.29 1019.90 1019.54 1019.13 1018.73 1018.42 1018.09 1017.98 1017.38 1014.89 1013.10 1012.55 1012.71 1012.48 1012.65 1012.64 1012.10 1012.04 1012.01 1011.78 1011.14 1011.15 1010.74 1010.28 1010.56 1010.00 1009.17 1008.80 1008.41 1008.19 1007.95 1007.78 1006.90 1007.08 1007.24 1007.76 1008.00 1008.20 1008.33
1022.22 1021.93 1021.61 1021.36 1021.06 1020.62 1020.14 1019.65 1019.21 1018.77 1018.49 1018.11 1017.90 1017.99 1016.16 1014.03 1013.36 1013.02 1012.51 1011.92 1011.73 1011.71 1011.77 1011.88 1011.95 1011.88 1011.35 1010.86 1010.93 1010.71 1010.76 1010.25 1008.95 1008.50 1008.11 1007.91 1007.61 1007.30 1006.67 1007.49 1007.96 1007.89 1008.08 1008.28 1008.11
1022.26 1021.92 1021.61 1021.30 1020.92 1020.51 1020.02 1019.34 1018.61 1018.08 1017.98 1017.89 1018.05 1017.70 1015.35 1013.53 1013.15 1011.96 1011.99 1011.70 1011.52 1011.51 1011.51 1011.56 1011.72 1011.62 1011.27 1011.36 1011.77 1011.20 1010.94 1010.40 1009.50 1008.43 1008.15 1007.96 1007.62 1007.18 1006.72 1007.31 1007.81 1008.31 1008.40 1008.55 1008.34
1022.26 1022.00 1021.72 1021.36 1020.86 1020.37 1019.89 1019.17 1017.68 1017.70 1017.59 1017.47 1017.44 1017.64 1014.81 1013.20 1012.34 1011.54 1011.09 1011.16 1011.31 1011.02 1011.24 1011.07 1011.43 1011.46 1011.43 1011.45 1010.74 1010.89 1011.19 1010.72 1009.83 1008.73 1008.49 1008.40 1008.07 1007.17 1006.91 1007.34 1007.76 1007.82 1007.78 1008.16 1008.13
1022.20 1021.98 1021.67 1021.32 1020.88 1020.39 1019.99 1019.21 1018.37 1018.12 1017.89 1017.09 1016.58 1015.46 1013.95 1013.17 1012.28 1011.41 1011.27 1011.08 1011.15 1011.02 1010.86 1010.83 1011.29 1010.61 1009.93 1010.13 1010.43 1010.47 1010.61 1010.45 1010.01 1009.26 1009.17 1008.75 1008.74 1008.21 1007.80 1007.39 1007.68 1007.79 1007.68 1007.14 1006.86
1022.12 1021.83 1021.50 1021.16 1020.77 1020.31 1020.26 1020.13 1019.37 1019.29 1017.64 1016.33 1015.57 1015.06 1014.17 1014.44 1013.96 1011.84 1011.24 1011.34 1011.07 1010.53 1010.78 1011.09 1009.77 1008.86 1010.19 1010.07 1010.60 1010.57 1010.48 1010.29 1010.17 1009.59 1009.70 1009.31 1008.81 1008.43 1007.82 1007.15 1006.89 1006.98 1007.14 1006.83 1006.47
1022.08 1021.81 1021.51 1021.08 1020.62 1020.58 1020.61 1020.24 1019.71 1019.22 1018.20 1015.32 1014.37 1013.65 1013.57 1013.86 1013.35 1011.74 1011.67 1010.92 1010.92 1010.85 1010.25 1009.78 1007.47 1009.29 1009.33 1009.65 1010.31 1010.20 1009.98 1010.09 1010.12 1009.70 1009.37 1009.49 1008.45 1007.92 1006.87 1006.26 1006.01 1005.74 1005.51 1005.64 1005.72
1022.05 1021.80 1021.56 1021.17 1020.91 1021.00 1020.50 1019.90 1019.52 1019.22 1018.18 1014.43 1012.95 1011.18 1011.63 1012.15 1011.68 1010.87 1010.34 1010.73 1010.51 1010.14 1010.36 1010.09 1008.94 1008.50 1008.43 1008.65 1009.23 1009.17 1009.38 1009.86 1010.14 1010.52 1010.00 1009.47 1008.20 1006.90 1006.11 1005.31 1005.18 1004.60 1004.82 1004.59 1004.71
1021.87 1021.69 1021.53 1021.39 1021.68 1021.32 1020.63 1020.13 1019.76 1019.50 1017.75 1012.61 1011.40 1010.25 1010.52 1010.73 1009.73 1009.47 1008.88 1009.59 1009.45 1009.47 1009.70 1008.49 1008.10 1008.06 1007.95 1007.48 1008.60 1008.09 1008.99 1009.53 1009.95 1010.19 1010.31 1009.88 1009.79 1005.38 1005.18 1004.74 1003.83 1003.96 1004.12 1003.87 1003.61
1021.56 1021.39 1021.22 1021.46 1021.74 1021.11 1020.66 1020.28 1019.86 1019.29 1016.21 1012.53 1010.92 1010.80 1011.25 1010.80 1010.01 1009.12 1009.45 1009.21 1009.12 1010.01 1009.57 1008.79 1008.28 1007.76 1006.77 1007.71 1007.87 1008.21 1008.79 1008.95 1009.51 1009.94 1009.96 1008.30 1009.30 1003.24 1004.46 1003.34 1003.32 1003.18 1003.12 1002.89 1002.74
1021.29 1021.04 1020.99 1021.03 1020.80 1020.65 1020.61 1020.79 1020.26 1018.15 1015.14 1012.64 1011.29 1011.03 1011.11 1010.87 1010.50 1010.17 1009.90 1009.76 1009.50 1010.01 1009.75 1008.95 1008.15 1007.98 1007.56 1007.29 1007.77 1008.17 1008.47 1009.02 1009.47 1009.67 1007.59 1007.16 1007.98 1003.57 1002.38 1002.41 1002.22 1002.53 1002.44 1002.12 1002.04
1020.83 1020.49 1020.12 1020.03 1020.02 1020.47 1021.11 1021.23 1020.39 1017.33 1015.44 1012.68 1011.93 1011.25 1011.09 1010.54 1010.04 1009.93 1010.03 1010.03 1009.91 1009.72 1009.46 1008.94 1008.01 1007.56 1006.96 1006.88 1007.03 1007.30 1007.68 1007.46 1007.84 1007.83 1006.47 1006.91 1005.56 1001.74 1001.60 1001.89 1001.83 1001.95 1001.98 1001.79 1001.86
1020.41 1020.42 1020.28 1019.49 1019.56 1020.22 1020.83 1020.84 1019.06 1016.93 1015.27 1014.16 1012.26 1011.56 1011.13 1010.40 1010.40 1010.14 1010.26 1009.86 1009.51 1009.59 1009.45 1008.55 1007.44 1006.50 1006.17 1006.48 1007.17 1006.70 1007.12 1006.39 1007.46 1007.26 1006.74 1005.42 1004.07 1002.60 1001.56 1001.26 1001.27 1001.28 1001.42 1001.68 1001.51
1020.82 1020.56 1019.83 1019.27 1019.36 1020.10 1020.45 1019.62 1018.14 1016.42 1015.29 1014.54 1013.53 1012.20 1011.96 1011.44 1010.93 1010.72 1010.23 1010.17 1009.52 1009.34 1009.06 1008.34 1007.75 1006.54 1005.94 1006.19 1006.14 1006.15 1006.57 1007.12 1007.41 1007.11 1006.82 1005.16 1003.93 1002.31 1001.23 1001.06 1000.99 1001.15 1001.19 1001.08 1001.15
1021.06 1020.80 1019.82 1019.18 1019.65 1019.93 1019.53 1018.72 1017.25 1015.85 1015.35 1014.53 1013.83 1013.55 1013.09 1012.81 1012.12 1011.34 1010.68 1010.33 1009.85 1009.69 1008.95 1008.80 1008.57 1007.00 1006.74 1006.03 1005.53 1006.06 1006.05 1006.38 1006.35 1006.25 1005.96 1004.78 1002.87 1001.89 1001.29 1001.14 1001.05 1000.65 1000.28 1000.86 1000.76
1021.65 1021.47 1020.31 1019.91 1020.00 1019.45 1018.78 1017.65 1016.67 1015.68 1015.17 1014.70 1014.04 1013.80 1013.42 1013.08 1012.90 1012.29 1010.90 1009.93 1009.42 1009.29 1009.68 1009.26 1009.22 1008.01 1007.17 1006.05 1005.72 1005.40 1005.07 1005.67 1005.60 1005.50 1005.02 1004.08 1001.78 1001.02 1000.97 1000.91 1001.09 1000.83 1000.48 1000.60 1000.57
1022.15 1021.89 1020.42 1020.20 1020.01 1019.41 1019.07 1018.00 1016.60 1015.68 1015.27 1014.81 1014.20 1013.81 1013.48 1013.30 1012.82 1011.59 1010.83 1009.63 1009.48 1009.46 1009.24 1009.00 1009.37 1009.11 1007.74 1007.37 1006.08 1005.81 1005.35 1005.46 1005.23 1004.98 1004.19 1003.95 1002.36 1001.82 1001.00 1000.28 1000.30 1000.78 1000.31 1000.09 1000.51
1022.47 1022.67 1021.62 1020.85 1020.50 1020.33 1019.95 1018.47 1017.30 1015.87 1015.26 1014.75 1014.10 1013.71 1013.74 1013.37 1012.83 1011.65 1011.02 1010.48 1010.14 1009.74 1009.86 1009.74 1009.43 1009.14 1008.51 1007.88 1007.83 1006.56 1005.80 1005.71 1005.25 1004.73 1004.26 1003.40 1003.12 1001.22 1001.26 1000.83 1000.52 1000.10 1000.24 1000.11 1000.12
1022.44 1022.93 1022.01 1021.81 1021.44 1021.24 1020.55 1019.26 1018.09 1016.75 1015.72 1015.06 1014.19 1014.01 1013.97 1013.26 1012.62 1011.95 1011.57 1010.95 1010.19 1009.29 1008.95 1009.86 1009.53 1009.23 1008.64 1008.33 1007.87 1007.67 1006.71 1005.65 1005.63 1005.11 1004.60 1004.12 1003.18 1001.23 1001.60 1001.18 1000.95 1000.46 1000.04 1000.02 999.82
1022.22 1022.45 1021.84 1021.94 1021.44 1020.96 1020.45 1019.49 1018.31 1017.61 1017.13 1016.11 1015.46 1014.70 1014.31 1013.32 1012.68 1012.15 1012.08 1011.68 1010.64 1009.93 1009.60 1009.36 1009.23 1009.33 1008.62 1008.54 1008.02 1007.23 1006.61 1006.17 1005.87 1005.63 1004.94 1005.03 1004.29 1002.26 1001.36 1001.34 1000.95 1000.70 1000.49 1000.03 999.40
1021.42 1021.32 1021.64 1021.28 1021.21 1021.11 1020.34 1019.27 1018.49 1018.20 1017.20 1016.57 1016.02 1015.47 1014.45 1013.41 1012.98 1012.40 1011.98 1011.65 1011.38 1010.74 1010.31 1010.04 1009.68 1009.39 1008.30 1008.11 1007.65 1006.84 1005.63 1005.55 1006.25 1006.65 1005.97 1004.91 1004.06 1002.36 1000.82 1001.26 1000.94 1000.43 1000.38 1000.17 999.89
Thickness
5580 5584 5588 5593 5598 5604 5609 5612 5619 5627 5633 5639 5646 5653 5663 5675 5690 5701 5704 5718 5728 5735 5740 5744 5749 5752 5759 5757 5763 5757 5727 5723 5752 5751 5772 5782 5782 5807 5819 5811 5818 5818 5814 5818 5811
5571 5574 5577 5581 5586 5591 5596 5602 5608 5614 5620 5628 5636 5646 5654 5668 5680 5690 5706 5715 5725 5730 5729 5729 5733 5740 5738 5746 5747 5738 5717 5732 5760 5769 5769 5773 5781 5792 5801 5803 5806 5807 5809 5811 5808
5562 5565 5568 5571 5575 5579 5584 5590 5596 5603 5610 5617 5625 5634 5646 5657 5668 5691 5697 5709 5721 5725 5726 5726 5730 5730 5728 5737 5740 5732 5727 5744 5761 5769 5772 5771 5774 5790 5791 5789 5805 5807 5801 5804 5803
5552 5555 5557 5560 5564 5568 5572 5578 5585 5592 5597 5604 5613 5622 5632 5643 5651 5686 5689 5700 5708 5713 5717 5715 5718 5714 5715 5720 5734 5732 5742 5752 5761 5765 5763 5761 5769 5777 5790 5800 5814 5815 5811 5806 5801
5541 5542 5546 5548 5551 5555 5560 5565 5571 5578 5585 5593 5598 5604 5614 5629 5660 5681 5683 5687 5694 5700 5701 5702 5706 5708 5705 5712 5723 5725 5739 5748 5755 5755 5757 5764 5765 5765 5782 5799 5808 5808 5805 5803 5804
5529 5530 5531 5533 5536 5540 5545 5550 5556 5562 5569 5577 5585 5592 5598 5616 5657 5660 5665 5670 5675 5681 5686 5690 5692 5703 5701 5705 5710 5726 5731 5740 5748 5754 5757 5758 5765 5765 5782 5795 5795 5799 5798 5798 5802
5519 5518 5518 5518 5520 5523 5528 5534 5541 5549 5556 5562 5569 5577 5587 5621 5639 5648 5651 5659 5662 5666 5673 5679 5683 5686 5697 5698 5710 5717 5713 5724 5739 5750 5751 5754 5753 5755 5781 5786 5787 5787 5792 5796 5800
5507 5506 5506 5505 5505 5506 5510 5516 5522 5531 5540 5547 5554 5561 5583 5614 5622 5634 5636 5647 5656 5663 5666 5667 5672 5675 5685 5698 5695 5701 5704 5700 5735 5742 5752 5749 5735 5762 5777 5771 5771 5778 5782 5788 5795
5496 5495 5493 5492 5491 5490 5493 5499 5508 5515 5522 5529 5537 5547 5577 5601 5610 5622 5630 5636 5641 5650 5654 5658 5663 5664 5675 5668 5664 5680 5672 5687 5714 5736 5740 5735 5732 5759 5774 5767 5766 5765 5770 5776 5782
5486 5483 5480 5478 5475 5474 5477 5483 5495 5498 5502 5512 5523 5528 5564 5586 5603 5614 5624 5630 5628 5637 5639 5643 5643 5641 5646 5652 5662 5667 5666 5679 5694 5725 5725 5722 5721 5753 5766 5763 5760 5764 5767 5769 5776
5476 5472 5469 5464 5459 5456 5459 5464 5468 5472 5479 5491 5506 5529 5556 5568 5587 5600 5606 5614 5616 5621 5622 5629 5614 5632 5666 5670 5678 5675 5669 5678 5687 5704 5706 5709 5708 5724 5738 5748 5749 5752 5759 5770 5779
5467 5462 5457 5450 5443 5441 5439 5437 5444 5447 5462 5485 5500 5514 5534 5537 5547 5575 5590 5593 5599 5608 5610 5604 5616 5663 5657 5658 5654 5658 5658 5663 5676 5688 5689 5689 5695 5709 5727 5742 5753 5756 5758 5765 5774
5458 5453 5446 5439 5434 5432 5426 5424 5424 5425 5435 5480 5495 5507 5522 5519 5534 5561 5568 5583 5585 5585 5598 5601 5653 5649 5646 5638 5633 5643 5649 5662 5665 5676 5681 5679 5683 5700 5727 5739 5751 5760 5769 5772 5773
5449 5443 5436 5429 5424 5419 5416 5413 5410 5410 5411 5470 5492 5515 5520 5522 5530 5561 5565 5567 5573 5582 5582 5582 5627 5629 5632 5629 5637 5632 5655 5659 5653 5645 5642 5665 5655 5695 5716 5735 5745 5759 5763 5770 5774
5442 5435 5427 5418 5410 5408 5409 5399 5396 5394 5385 5475 5488 5507 5517 5525 5550 5554 5562 5555 5569 5579 5571 5594 5613 5614 5613 5632 5629 5635 5648 5640 5641 5630 5631 5641 5623 5692 5711 5720 5751 5753 5758 5767 5777
5438 5430 5422 5412 5404 5405 5400 5392 5387 5391 5383 5451 5477 5485 5487 5506 5529 5543 5542 5549 5559 5545 5554 5578 5595 5603 5623 5624 5625 5635 5631 5632 5623 5611 5592 5647 5629 5702 5705 5724 5743 5755 5760 5768 5775
5434 5427 5418 5411 5406 5401 5395 5384 5375 5396 5427 5452 5466 5467 5471 5485 5501 5511 5519 5520 5528 5526 5536 5568 5577 5586 5598 5598 5605 5600 5603 5587 5583 5574 5595 5660 5619 5682 5712 5729 5743 5748 5754 5763 5769
5433 5427 5421 5414 5407 5398 5387 5376 5371 5407 5416 5453 5459 5467 5467 5483 5495 5499 5504 5504 5513 5520 5529 5539 5552 5569 5588 5589 5595 5592 5597 5585 5582 5586 5617 5631 5602 5681 5718 5732 5742 5742 5746 5755 5760
5433 5425 5417 5415 5407 5395 5385 5371 5358 5404 5427 5426 5449 5461 5468 5482 5490 5496 5491 5504 5513 5517 5518 5533 5543 5578 5582 5586 5582 5585 5568 5617 5585 5593 5590 5610 5635 5679 5703 5709 5725 5735 5743 5749 5755
5426 5418 5416 5413 5405 5393 5387 5372 5383 5415 5427 5425 5429 5456 5457 5461 5480 5477 5483 5491 5505 5510 5517 5529 5528 5559 5572 5572 5574 5571 5593 5570 5569 5557 5566 5589 5610 5645 5685 5702 5715 5722 5730 5741 5746
5420 5409 5412 5410 5401 5394 5393 5389 5404 5418 5424 5431 5433 5434 5435 5444 5458 5472 5482 5486 5493 5498 5506 5518 5515 5545 5545 5549 5563 5562 5559 5565 5574 5573 5564 5581 5606 5649 5674 5690 5694 5714 5731 5731 5738
5412 5392 5406 5402 5402 5398 5391 5412 5418 5418 5421 5424 5432 5435 5438 5443 5439 5451 5473 5486 5493 5495 5486 5502 5498 5513 5530 5557 5559 5563 5565 5569 5556 5561 5566 5582 5601 5658 5665 5676 5682 5690 5707 5717 5725
5407 5399 5403 5399 5400 5403 5396 5404 5417 5419 5418 5421 5427 5434 5436 5436 5439 5454 5464 5485 5486 5487 5490 5495 5482 5496 5518 5528 5545 5544 5556 5558 5569 5573 5564 5557 5585 5650 5666 5679 5683 5680 5695 5708 5710
5391 5380 5380 5385 5387 5388 5376 5391 5400 5416 5417 5421 5425 5431 5429 5431 5442 5447 5458 5469 5472 5478 5482 5481 5475 5484 5492 5511 5506 5527 5545 5550 5555 5550 5561 5566 5583 5631 5634 5646 5660 5674 5684 5689 5696
5385 5375 5389 5353 5356 5355 5367 5384 5389 5400 5411 5416 5421 5421 5419 5423 5430 5436 5443 5449 5465 5478 5482 5465 5470 5474 5487 5498 5505 5498 5519 5534 5529 5548 5545 5560 5568 5616 5624 5630 5641 5654 5666 5672 5682
5378 5372 5390 5377 5371 5374 5363 5349 5386 5386 5387 5395 5399 5407 5409 5420 5427 5433 5427 5435 5447 5462 5466 5473 5463 5468 5479 5487 5490 5490 5503 5515 5522 5532 5535 5531 5538 5589 5615 5616 5626 5635 5644 5658 5674
5393 5393 5386 5379 5369 5351 5348 5372 5379 5371 5378 5382 5387 5384 5390 5407 5410 5419 5425 5429 5431 5440 5446 5450 5458 5458 5469 5485 5480 5479 5500 5511 5496 5492 5513 5516 5539 5578 5600 5596 5607 5622 5631 5640 5649